Location: Brno
(49.2000°N, 16.6330°E)
Time: 16:07:00
(UTC+02:00)

Daily predictions for brighter satellites

Satellite Brightness Start Highest point End
(mag) Time Altitude Azimuth Time Altitude Azimuth Time Altitude Azimuth
Cosmos 2279 Rocket 4.1 20:33:01 10° S 20:39:09 62° E 20:45:17 10° NNE
ATLAS 5 CENTAUR R/B 2.5 20:35:58 10° NW 20:41:51 81° SW 20:48:17 10° SE
Cosmos 1867 3.6 20:36:25 10° NW 20:41:56 88° NE 20:47:23 10° SE
Envisat 3.0 20:39:17 10° SSE 20:44:21 79° ENE 20:49:28 10° NNW
Cosmos 1939 Rocket 2.9 20:41:35 10° SSE 20:45:34 65° ENE 20:49:30 10° N
SJ-11-01 4.3 20:42:41 10° SSE 20:47:20 74° ENE 20:52:01 10° N
Cosmos 1428 Rocket 4.5 20:41:21 10° N 20:47:31 83° E 20:53:38 10° S
H-2A R/B 3.7 20:46:52 10° E 20:50:09 18° ENE 20:53:26 10° NNE
Cosmos 2322 4.3 20:45:04 10° S 20:50:10 35° ESE 20:55:18 10° NE
SAR-Lupe-4 3.8 20:47:58 10° S 20:51:34 74° WSW 20:55:10 10° NNW
SL-16 R/B 2.3 20:49:56 10° SSW 20:55:37 85° WNW 21:01:20 10° NNE
Cosmos 1825 3.5 20:52:13 10° NNW 20:55:50 42° W 20:59:26 10° SSW
USA 229 DEB 4.2 20:49:56 10° S 20:56:01 36° ESE 21:02:13 10° NE
USA 229 4.2 20:50:04 10° S 20:56:08 35° ESE 21:02:19 10° NE
ARGOS 4.1 20:51:40 10° ESE 20:56:22 32° ENE 21:01:06 10° N
Lacrosse 4 Rocket 3.8 20:55:15 10° WNW 20:58:34 22° WSW 21:01:55 10° SSW
Helios 1B rocket 2.4 20:55:06 10° NNE 20:59:14 75° ESE 21:03:19 10° S
Cosmos 2242 Rocket 4.1 20:55:13 10° SSW 20:59:41 65° WNW 21:04:08 10° N
USA 186 3.7 21:00:33 10° SSW 21:03:04 27° W 21:05:45 10° NW
CZ-4C R/B 3.6 20:57:24 10° NW 21:03:43 42° NNE 21:10:50 10° ESE
Meteor 1-29 2.9 21:02:14 10° NNE 21:05:43 74° ESE 21:09:10 10° S
Cosmos 2221 Rocket 4.5 21:02:47 10° SSE 21:06:38 30° E 21:10:32 10° NNE
ERS-1 Rocket 3.1 21:02:31 10° SSE 21:07:28 65° ENE 21:12:28 10° N
Abrixas rocket 2.1 21:05:25 10° W 21:08:43 80° S 21:11:44 12° E
SeaSat 1 3.3 21:05:48 12° ESE 21:10:02 38° NE 21:14:36 10° NNW
Cosmos 1844 Rocket 3.0 21:05:54 10° NNW 21:11:22 52° NE 21:16:02 14° SE
Cosmos 2278 Rocket 3.5 21:06:46 10° NNW 21:11:39 28° NE 21:16:13 11° ESE
Cosmos 2333 Rocket 3.8 21:12:29 13° ESE 21:14:19 15° E 21:17:23 10° ENE
CZ-4B DEB 3.9 21:14:25 10° S 21:17:16 39° W 21:20:10 10° NNW
USA 267 3.4 21:11:08 10° NE 21:17:42 84° NNW 21:24:16 10° WSW
Resurs 01 Rocket 4.3 21:18:38 10° SW 21:21:50 19° W 21:25:03 10° NW
Cosmos 1606 4.2 21:21:51 16° ESE 21:23:01 19° E 21:25:43 10° NE
MetOp-A 4.2 21:19:00 12° SSE 21:23:55 66° ENE 21:29:14 10° N
SPOT 5 3.1 21:23:02 16° SE 21:26:42 51° ENE 21:31:06 10° N
H-2A R/B 3.7 21:25:26 14° E 21:27:48 21° ENE 21:31:05 10° NNE
Cosmos 1908 Rocket 3.9 21:25:06 10° NNW 21:29:25 66° W 21:33:42 10° S
ATLAS 3B R/B 4.4 21:24:54 10° NW 21:30:46 27° NNE 21:36:24 10° ENE
SL-08 RB Rocket 4.2 21:28:46 18° SE 21:31:50 44° ENE 21:36:10 10° N
Meteor 2-10 Rocket 3.8 21:26:39 10° S 21:32:30 88° WNW 21:38:16 10° NNE
Sich 1 Rocket 4.1 21:30:07 10° NNW 21:34:32 60° W 21:38:59 10° S
Cosmos 2219 Rocket 3.1 21:33:39 17° SE 21:36:33 26° ESE 21:41:09 10° NE
Cosmos 1777 Rocket 4.0 21:31:20 10° NNW 21:36:40 90° E 21:40:44 17° SSE
SPOT 1/Viking Rocket 3.9 21:34:01 18° SE 21:37:38 50° ENE 21:42:39 10° N
YAOGAN 6 3.6 21:40:29 10° S 21:43:58 44° W 21:47:26 10° NNW
Cosmos 1782 Rocket 3.6 21:39:37 10° NNW 21:44:00 78° W 21:47:37 15° S
Meteor 1-26 Rocket 4.4 21:41:12 10° SSW 21:46:56 80° WNW 21:52:48 10° N
MOS 1-B Rocket 3.8 21:47:32 18° SSE 21:51:56 80° ENE 21:57:33 10° NNW
Cosmos 2263 Rocket 4.3 21:49:01 10° NW 21:53:06 21° W 21:57:11 10° SSW
USA 234 3.9 21:50:06 17° SSE 21:54:53 45° SW 22:01:07 10° WNW
USA 245 3.9 21:51:36 19° SSE 21:55:39 88° E 22:00:15 10° NNW
Landsat 7 4.3 21:53:56 25° SE 21:56:18 46° ENE 22:00:52 10° N
Okean 1-7 3.0 21:53:43 12° S 21:57:44 87° ESE 22:02:10 10° N
Okean 2 Rocket 3.2 21:53:45 10° NNW 21:58:18 78° W 22:01:21 20° S
Meteor 1-27 Rocket 4.5 21:57:06 24° SE 21:59:23 33° E 22:04:19 10° NNE
Cosmos 2237 4.2 22:03:04 10° SSW 22:08:49 89° WNW 22:14:34 10° NNE
Cosmos 2322 Rocket 4.3 22:04:44 10° WSW 22:09:36 29° NW 22:14:30 10° NNE
Cosmos 2084 3.1 22:05:48 10° NW 22:09:38 87° NE 22:10:58 40° SE
Cosmos 1782 2.7 22:07:56 28° S 22:09:58 75° E 22:13:59 10° NNE
Atlas Centaur 2 4.3 22:06:23 10° SW 22:10:50 17° S 22:11:30 17° S
Terra 2.3 22:09:31 30° ESE 22:11:26 46° ENE 22:15:59 10° N
Cosmos 2360 Rocket 3.1 22:11:28 10° SW 22:16:59 52° NW 22:22:33 10° NNE
COSMOS 2428 2.6 22:12:28 10° SSW 22:18:10 85° ESE 22:23:55 10° NNE
Meteor 1-10 Rocket 4.2 22:16:30 19° S 22:20:54 79° E 22:26:46 10° NNE
Cosmos 1602 3.7 22:17:10 10° N 22:21:00 63° ENE 22:21:49 48° SE
Meteor 1-11 Rocket 3.7 22:15:35 10° N 22:21:07 67° ENE 22:23:36 33° SSE
Cosmos 1633 2.5 22:17:33 10° N 22:21:14 80° E 22:22:04 51° SSE
NOSS 0 Rocket 4.3 22:20:42 29° SSE 22:23:16 43° ESE 22:29:02 10° NE
deb Chang Zheng 4 4.2 22:20:32 10° NNE 22:24:37 37° E 22:24:59 36° ESE
Cosmos 1346 Rocket 3.0 22:24:33 45° ESE 22:24:56 47° E 22:28:48 10° NNE
ATLAS 5 CENTAUR R/B 4.4 22:21:53 10° WNW 22:25:57 19° WSW 22:30:13 10° SSW
Cosmos 1844 4.0 22:20:25 10° NW 22:26:02 62° WSW 22:28:52 29° S
Cosmos 1980 4.1 22:26:30 34° SE 22:28:01 41° ESE 22:33:18 10° NE
H-2A R/B 2.0 22:26:39 31° S 22:29:03 76° WSW 22:34:00 10° NNW
Cosmos 2298 Rocket 4.3 22:26:10 10° NNW 22:31:25 55° ENE 22:33:23 35° ESE
Cosmos 2151 Rocket 3.7 22:28:11 10° NNW 22:32:37 69° W 22:34:22 35° S
SL-16 R/B 3.7 22:34:56 20° E 22:34:56 20° E 22:38:26 10° NE
CARTOSAT-1 3.5 22:34:26 48° SE 22:35:33 74° ENE 22:39:54 10° N
ARGOS 4.0 22:32:57 19° SSW 22:36:29 45° W 22:41:38 10° NNW
DMSP B5D2-2 4.1 22:32:20 10° NNE 22:37:35 62° ESE 22:39:27 38° SSE
CZ-4 R/B 4.4 22:33:29 10° NNE 22:37:59 38° E 22:38:27 37° ESE
NOSS 3-1 (C) 3.3 22:34:28 10° SSW 22:40:16 67° SE 22:46:51 10° NE
SL-08 R/B 4.4 22:36:42 10° N 22:42:53 85° W 22:45:48 33° S
SL-19 R/B 4.5 22:37:44 10° NNE 22:43:47 59° ESE 22:45:54 38° SSE
Cosmos 1570 Rocket 3.9 22:41:26 26° SSW 22:44:31 86° ESE 22:49:51 10° NNE
Abrixas rocket 3.4 22:42:13 10° W 22:44:25 34° WSW 22:44:25 34° WSW
IGS 5A 3.3 22:44:55 58° SSE 22:45:42 86° ENE 22:49:52 10° NNW
Cosmos 1553 Rocket 3.9 22:43:18 30° S 22:46:35 81° E 22:52:48 10° N
USA 229 DEB 4.1 22:39:50 10° SW 22:46:39 65° NW 22:53:39 10° NE
USA 229 4.1 22:39:56 10° SW 22:46:45 65° NW 22:53:45 10° NE
SeaSat 1 3.3 22:45:36 28° SSW 22:47:32 40° WSW 22:52:13 10° NW
Okean 1 Rocket 3.1 22:43:53 10° N 22:48:20 69° ENE 22:49:06 56° SE
PSLV R/B 3.9 22:49:52 46° NNW 22:49:52 46° NNW 22:51:59 10° NNW
Cosmos 1937 Rocket 3.6 22:44:22 10° NNW 22:49:36 65° ENE 22:51:05 45° SE
CZ-4C R/B 2.9 22:45:52 10° NW 22:52:50 72° SW 22:56:17 36° SSE
Cosmos 1674 Rocket 3.4 22:52:17 59° S 22:53:03 83° E 22:57:24 10° NNE
Cosmos 2208 Rocket 4.0 22:51:47 27° SSW 22:54:48 87° WNW 23:00:08 10° NNE
Cosmos 1844 Rocket 4.1 22:50:14 10° NW 22:55:00 29° WSW 22:57:42 20° SSW
Cosmos 2237 Rocket 2.2 22:53:21 42° S 22:55:06 61° ESE 23:00:44 10° NE
Cosmos 2278 Rocket 2.4 22:50:34 10° NNW 22:56:11 64° WSW 22:58:04 41° S
NOSS 3-1 (A) 3.4 22:53:29 27° SSW 22:56:49 65° SE 23:03:23 10° NE
Cosmos 2333 Rocket 2.1 22:54:22 27° SSW 22:57:40 83° ESE 23:03:29 10° NNE
Cosmos 1606 4.0 22:56:54 24° SW 22:58:33 37° WNW 23:02:06 10° N
ATLAS 2AS CENTAUR R/B 4.0 22:58:39 25° ESE 22:58:48 25° ESE 23:04:59 10° ENE
Cosmos 990 Rocket 4.1 22:53:44 10° NNW 22:58:52 64° ENE 23:00:05 48° ESE
USA 267 4.2 22:54:09 10° ENE 23:00:24 49° N 23:06:39 10° W
Cosmos 858 Rocket 4.4 22:55:40 10° NNW 23:00:56 89° WSW 23:02:13 53° SSE
DELTA 2 DEB (DPAF) 4.1 23:01:11 60° ESE 23:01:49 70° ENE 23:06:18 10° N
H-2A R/B 2.6 23:02:33 43° SW 23:03:29 51° W 23:07:45 10° NNW
Aureole 2 Rocket 4.2 23:07:13 20° NNE 23:07:13 20° NNE 23:08:14 10° NNE
Cosmos 2150 Rocket 4.0 23:00:18 10° NNW 23:05:47 88° ENE 23:07:10 52° SSE
Cosmos 1536 2.8 23:06:03 10° NNW 23:10:05 70° W 23:10:18 68° WSW
Iridium 4 Rocket 3.1 23:06:01 10° N 23:10:08 66° W 23:10:41 58° SW
Cosmos 1898 Rocket 3.7 23:09:00 10° NNW 23:14:07 62° WSW 23:15:14 49° SSW
Cosmos 883 Rocket 4.4 23:12:57 47° SSE 23:14:37 68° E 23:20:43 10° NNE
Cosmos 1975 Rocket 3.5 23:17:33 48° E 23:17:33 48° E 23:21:35 10° NNE
S3M 4.2 23:14:28 29° SSW 23:17:43 66° WNW 23:23:57 10° N
ASTEX 1 4.2 23:16:57 33° SW 23:18:39 45° W 23:23:27 10° NNW
ALOS 2 4.0 23:18:33 27° ENE 23:18:58 27° ENE 23:22:41 10° N
Meteor 1-5 Rocket 4.2 23:13:46 10° NNW 23:19:26 78° W 23:21:01 50° S
Cosmos 1340 4.1 23:20:44 29° NE 23:20:44 29° NE 23:23:05 10° NNE
Cosmos 2219 Rocket 2.7 23:15:14 13° SW 23:20:08 58° WNW 23:25:43 10° NNE
Cosmos 1709 Rocket 4.0 23:14:39 10° N 23:21:05 78° E 23:22:57 49° SSE
Cosmos 1763 Rocket 4.0 23:21:44 43° E 23:21:44 43° E 23:26:32 10° NE
ATLAS 3B R/B 3.1 23:16:09 10° NW 23:22:59 56° NE 23:26:13 30° ESE
Cosmos 1125 Rocket 4.4 23:18:00 10° NNW 23:23:03 40° ENE 23:24:21 34° E
Cosmos 1300 Rocket 4.5 23:19:26 10° NNW 23:23:30 39° W 23:24:16 36° WSW
CZ-4C R/B 3.4 23:24:30 66° NW 23:24:30 66° NW 23:27:43 10° NNW
Cosmos 1500 4.3 23:22:43 10° N 23:25:49 36° NE 23:25:49 36° NE
SL-24 DEB 4.0 23:32:10 80° SSE 23:32:25 87° E 23:37:05 10° N
CZ-2C R/B 3.7 23:36:27 38° E 23:37:04 39° ENE 23:41:42 10° N
Cosmos 1607 4.1 23:33:36 10° NW 23:39:57 68° NE 23:42:05 43° ESE
Meteor 1-18 Rocket 4.4 23:40:50 54° SE 23:41:32 58° E 23:47:19 10° NNE
Cosmos 1814 Rocket 3.8 23:41:11 74° S 23:41:36 82° ESE 23:46:48 10° NNE
USA 238 DEB 4.1 23:39:33 10° NW 23:46:33 60° NE 23:50:05 31° ESE
USA 238 4.1 23:39:39 10° NW 23:46:39 59° NE 23:50:12 30° ESE
Terra 3.4 23:48:24 23° WSW 23:49:23 25° W 23:53:19 10° NW
Cosmos 2074 Rocket 4.2 23:43:50 10° N 23:49:59 59° ENE 23:51:16 49° ESE
Cosmos 2369 Rocket 3.3 23:46:16 10° NNW 23:51:28 37° NE 23:53:29 28° E
Cosmos 1378 Rocket 4.3 23:51:10 44° W 23:51:41 46° WNW 23:55:59 10° N
Cosmos 468 Rocket 4.3 23:50:21 45° SW 23:51:52 65° WNW 23:57:11 10° NNE
Cosmos 2297 4.0 23:46:30 10° NW 23:52:01 51° WSW 23:52:43 48° SW
